Location: Meanaryar
(48.4161°N, 4.7315°W)
Time: 01:59:35
(UTC+00:00)

MetOp-B - Pass Details

Date: 18 September 2020
Orbit: 819 x 821 km, 98.7° (Epoch: 31 October)

Event Time Altitude Azimuth Distance (km) Brightness Sun altitude
Exits shadow 21:22:24 70° 233° (SW) 874 4.2 -28.0°
Maximum altitude 21:22:39 72° 256° (WSW) 867 4.2 -28.1°
Drops below altitude 10° 21:28:02 10° 342° (NNW) 2,428 7.3 -28.7°
Sets 21:30:24 0° 344° (NNW) 3,365 8.2 -29.0°
